Regional Weather Roundup
Issued by NWS

Home | Current Version | Previous Version | Graphics & Text | Print | Product List | Glossary On
Versions: 1 2 3 4 5 6 7 8 9 10 11 12 13 14 15 16 17 18 19 20 21 22 23 24 25 26 27 28 29 30 31 32 33 34 35 36 37 38 39 40 41 42 43 44 45 46 47 48 49 50
000
ASUS45 KBOI 292210
RWRID
WEATHER ROUNDUP FOR IDAHO
NATIONAL WEATHER SERVICE BOISE ID
400 PM MDT FRI AUG 29 2014

NOTE: "FAIR" INDICATES FEW OR NO CLOUDS BELOW 12000 FEET
WITH NO SIGNIFICANT WEATHER AND/OR OBSTRUCTIONS TO VISIBILITY

IDZ012-014-292300-
SOUTHWEST IDAHO


CITY           SKY/WX    TMP DP  RH WIND       PRES   REMARKS
BOISE          SUNNY     90  40  17 N5        29.86F
CALDWELL       SUNNY     88  43  20 SE3       29.87F
MOUNTAIN HOME  SUNNY     90  40  17 VRB3      29.87F
$$

IDZ016-017-292300-
SOUTHCENTRAL IDAHO


CITY           SKY/WX    TMP DP  RH WIND       PRES   REMARKS
BURLEY         MOSUNNY   85  47  26 E3        29.96F
JEROME         SUNNY     83  48  29 VRB3      29.97F
TWIN FALLS     SUNNY     85  53  33 VRB3      29.97F
$$

IDZ019>023-292300-
SOUTHEAST IDAHO


CITY           SKY/WX    TMP DP  RH WIND       PRES   REMARKS
IDAHO FALLS    MOSUNNY   85  41  21 SW15G23   30.01F
POCATELLO      SUNNY     88  43  20 W12G23    30.00F
REXBURG        SUNNY     81  41  24 SW10G18   30.02F
$$

IDZ006-010-011-018-031-032-292300-
CENTRAL IDAHO MOUNTAINS


CITY           SKY/WX    TMP DP  RH WIND       PRES   REMARKS
MCCALL         SUNNY     81  33  17 S15G22    29.99F
HAILEY         MOSUNNY   81  43  26 S10G22    30.05F
STANLEY          N/A     78  32  18 CALM      30.09F
SALMON         SUNNY     79  46  31 CALM      29.88F
CHALLIS        SUNNY     85  31  14 W6        29.95F
$$

IDZ002-004-006-007-026-292300-
NORTHERN IDAHO


CITY           SKY/WX    TMP DP  RH WIND       PRES   REMARKS
LEWISTON       SUNNY     88  40  18 NW5       29.81F
LOWELL           N/A     89  48  24 CALM      29.77F
COEUR D`ALENE  SUNNY     81  43  26 SW13      29.83F
MULLAN PASS    SUNNY     67  35  30 SW8       30.03F
$$


USA.gov is the U.S. government's official web portal to all federal, state and local government web resources and services.